TimeEST,TemperatureF,Dew PointF,Humidity,Sea Level PressureIn,VisibilityMPH,Wind Direction,Wind SpeedMPH,Gust SpeedMPH,PrecipitationIn,Events,Conditions,WindDirDegrees,DateUTC
12:15 AM,28.0,28.0,100,30.38,10.0,North,-9999.0,-,N/A,,Clear,0,2012-12-13 05:15:00
12:35 AM,27.7,27.7,100,30.38,10.0,North,-9999.0,-,N/A,,Clear,0,2012-12-13 05:35:00
12:55 AM,27.5,27.5,100,30.36,7.0,North,-9999.0,-,N/A,,Clear,0,2012-12-13 05:55:00
1:15 AM,27.3,27.3,100,30.35,10.0,North,-9999.0,-,N/A,,Clear,0,2012-12-13 06:15:00
1:35 AM,27.1,27.1,100,30.36,7.0,North,-9999.0,-,N/A,,Clear,0,2012-12-13 06:35:00
1:55 AM,26.8,26.8,100,30.36,10.0,North,-9999.0,-,N/A,,Clear,0,2012-12-13 06:55:00
2:15 AM,26.8,26.8,100,30.36,7.0,North,-9999.0,-,N/A,,Clear,0,2012-12-13 07:15:00
2:35 AM,26.4,26.4,100,30.36,10.0,North,-9999.0,-,N/A,,Clear,0,2012-12-13 07:35:00
2:55 AM,26.2,26.2,100,30.36,10.0,North,-9999.0,-,N/A,,Clear,0,2012-12-13 07:55:00
3:15 AM,26.2,26.2,100,30.37,10.0,North,-9999.0,-,N/A,,Clear,0,2012-12-13 08:15:00
3:35 AM,26.2,26.2,100,30.37,10.0,North,-9999.0,-,N/A,,Scattered Clouds,0,2012-12-13 08:35:00
4:15 AM,25.7,25.7,100,30.37,10.0,North,-9999.0,-,N/A,,Clear,0,2012-12-13 09:15:00
4:35 AM,24.8,24.8,100,30.36,10.0,North,-9999.0,-,N/A,,Clear,0,2012-12-13 09:35:00
4:55 AM,24.8,24.8,100,30.37,10.0,North,-9999.0,-,N/A,,Clear,0,2012-12-13 09:55:00
5:15 AM,24.8,24.6,99,30.37,10.0,North,-9999.0,-,N/A,,Clear,0,2012-12-13 10:15:00
5:35 AM,24.6,24.6,100,30.38,10.0,North,-9999.0,-,N/A,,Clear,0,2012-12-13 10:35:00
5:55 AM,24.3,23.9,99,30.38,10.0,North,-9999.0,-,N/A,,Clear,0,2012-12-13 10:55:00
6:15 AM,24.1,23.9,99,30.39,10.0,North,-9999.0,-,N/A,,Clear,0,2012-12-13 11:15:00
6:35 AM,23.7,23.5,99,30.39,10.0,North,-9999.0,-,N/A,,Clear,0,2012-12-13 11:35:00
6:55 AM,23.9,23.7,99,30.39,10.0,North,-9999.0,-,N/A,,Scattered Clouds,0,2012-12-13 11:55:00
7:15 AM,24.4,24.3,99,30.40,10.0,North,-9999.0,-,N/A,,Overcast,0,2012-12-13 12:15:00
7:35 AM,23.9,23.7,99,30.40,10.0,North,-9999.0,-,N/A,,Scattered Clouds,0,2012-12-13 12:35:00
7:55 AM,23.7,23.5,99,30.42,7.0,North,-9999.0,-,N/A,,Clear,0,2012-12-13 12:55:00
8:15 AM,23.9,23.5,99,30.42,10.0,North,-9999.0,-,N/A,,Clear,0,2012-12-13 13:15:00
8:35 AM,25.2,25.2,100,30.43,10.0,North,-9999.0,-,N/A,,Clear,0,2012-12-13 13:35:00
8:55 AM,26.6,26.6,100,30.42,7.0,North,-9999.0,-,N/A,,Clear,0,2012-12-13 13:55:00
9:15 AM,29.3,29.3,100,30.42,10.0,North,-9999.0,-,N/A,,Clear,0,2012-12-13 14:15:00
9:35 AM,31.6,31.6,100,30.42,7.0,North,-9999.0,-,N/A,,Clear,0,2012-12-13 14:35:00
9:55 AM,33.1,32.5,98,30.42,10.0,North,-9999.0,-,N/A,,Clear,0,2012-12-13 14:55:00
10:15 AM,34.3,33.4,97,30.43,10.0,North,-9999.0,-,N/A,,Clear,0,2012-12-13 15:15:00
10:35 AM,36.1,34.5,94,30.43,10.0,North,-9999.0,-,N/A,,Clear,0,2012-12-13 15:35:00
10:55 AM,38.8,34.9,86,30.42,10.0,North,-9999.0,-,N/A,,Clear,0,2012-12-13 15:55:00
11:15 AM,40.8,34.3,78,30.42,10.0,North,-9999.0,-,N/A,,Clear,0,2012-12-13 16:15:00
11:35 AM,43.3,31.8,64,30.41,10.0,North,-9999.0,-,N/A,,Clear,0,2012-12-13 16:35:00
11:55 AM,44.2,31.6,61,30.40,10.0,North,-9999.0,-,N/A,,Clear,0,2012-12-13 16:55:00
12:15 PM,45.5,30.6,56,30.39,10.0,North,-9999.0,-,N/A,,Clear,0,2012-12-13 17:15:00
12:35 PM,47.1,30.2,52,30.39,10.0,North,-9999.0,-,N/A,,Clear,0,2012-12-13 17:35:00
12:55 PM,47.8,29.7,49,30.38,10.0,North,-9999.0,-,N/A,,Clear,0,2012-12-13 17:55:00
1:15 PM,49.1,31.5,51,30.37,10.0,North,-9999.0,-,N/A,,Clear,0,2012-12-13 18:15:00
1:35 PM,49.8,29.3,45,30.36,10.0,North,-9999.0,-,N/A,,Clear,0,2012-12-13 18:35:00
1:55 PM,49.8,32.4,51,30.35,10.0,North,-9999.0,-,N/A,,Clear,0,2012-12-13 18:55:00
2:15 PM,50.0,34.9,56,30.35,10.0,North,-9999.0,-,N/A,,Clear,0,2012-12-13 19:15:00
2:35 PM,50.5,31.3,48,30.34,10.0,North,-9999.0,-,N/A,,Clear,0,2012-12-13 19:35:00
2:55 PM,47.3,33.8,59,30.34,10.0,North,-9999.0,-,N/A,,Clear,0,2012-12-13 19:55:00
3:15 PM,46.0,34.2,63,30.35,10.0,North,-9999.0,-,N/A,,Clear,0,2012-12-13 20:15:00
3:35 PM,43.2,34.0,70,30.35,10.0,North,-9999.0,-,N/A,,Clear,0,2012-12-13 20:35:00
3:55 PM,41.0,33.8,76,30.34,10.0,North,-9999.0,-,N/A,,Clear,0,2012-12-13 20:55:00
4:15 PM,39.6,33.8,80,30.34,10.0,North,-9999.0,-,N/A,,Clear,0,2012-12-13 21:15:00
4:35 PM,38.8,33.8,82,30.34,10.0,North,-9999.0,-,N/A,,Clear,0,2012-12-13 21:35:00
4:55 PM,37.6,33.6,86,30.34,10.0,North,-9999.0,-,N/A,,Clear,0,2012-12-13 21:55:00
5:35 PM,35.2,32.4,89,30.34,10.0,North,-9999.0,-,N/A,,Clear,0,2012-12-13 22:35:00
6:35 PM,32.9,32.0,96,30.34,10.0,North,-9999.0,-,N/A,,Clear,0,2012-12-13 23:35:00
7:15 PM,32.0,31.1,96,30.36,10.0,North,-9999.0,-,N/A,,Clear,0,2012-12-14 00:15:00
7:55 PM,31.8,31.1,97,30.35,10.0,North,-9999.0,-,N/A,,Clear,0,2012-12-14 00:55:00
8:15 PM,31.5,30.9,98,30.35,10.0,North,-9999.0,-,N/A,,Clear,0,2012-12-14 01:15:00
8:55 PM,30.7,30.4,99,30.35,10.0,North,-9999.0,-,N/A,,Clear,0,2012-12-14 01:55:00
9:15 PM,30.2,30.2,100,30.34,10.0,North,-9999.0,-,N/A,,Clear,0,2012-12-14 02:15:00
9:35 PM,30.0,29.5,98,30.34,10.0,North,-9999.0,-,N/A,,Clear,0,2012-12-14 02:35:00
9:55 PM,29.8,29.7,99,30.34,10.0,North,-9999.0,-,N/A,,Clear,0,2012-12-14 02:55:00
10:15 PM,29.5,29.1,99,30.35,10.0,North,-9999.0,-,N/A,,Clear,0,2012-12-14 03:15:00
10:35 PM,29.5,29.3,99,30.34,10.0,North,-9999.0,-,N/A,,Clear,0,2012-12-14 03:35:00
10:55 PM,29.1,28.9,99,30.34,10.0,North,-9999.0,-,N/A,,Clear,0,2012-12-14 03:55:00
11:15 PM,28.9,28.8,99,30.35,10.0,North,-9999.0,-,N/A,,Clear,0,2012-12-14 04:15:00
11:35 PM,28.8,28.4,99,30.34,10.0,North,-9999.0,-,N/A,,Clear,0,2012-12-14 04:35:00
11:55 PM,28.6,28.4,99,30.35,10.0,North,-9999.0,-,N/A,,Clear,0,2012-12-14 04:55:00